Regional Weather Roundup
Issued by NWS

Home | Current Version | Previous Version | Text Only | Print | Product List | Glossary On
Versions: 1 2 3 4 5 6 7 8 9 10 11 12 13 14 15 16 17 18 19 20 21 22 23 24 25 26 27 28 29 30 31 32 33 34 35 36 37 38 39 40 41 42 43 44 45 46 47 48 49 50
000
ASUS43 KDTX 251310
RWRMI
MICHIGAN HOURLY REGIONAL WEATHER ROUNDUP
NATIONAL WEATHER SERVICE DETROIT/PONTIAC MI
900 AM EDT MON JUL 25 2016

NOTE: "FAIR" INDICATES FEW OR NO CLOUDS BELOW 12,000 FEET WITH NO
SIGNIFICANT WEATHER AND/OR OBSTRUCTION TO VISIBILITY.

MIZ047>049-052>055-059>063-066>070-074>076-081>083-251400-
SOUTHEAST LOWER MICHIGAN

CITY           SKY/WX    TMP DP  RH WIND       PRES   REMARKS
ADRIAN         PTSUNNY   74  69  85 W8        29.96R
ALMA           PTSUNNY   77  72  85 W12       29.93S
ANN ARBOR      CLOUDY    76  70  82 W7        29.92F
BAD AXE        CLOUDY    76  71  85 W6        29.90R
CARO           CLOUDY    76  71  85 W7        29.90R
DETROIT CITY   CLOUDY    76  71  85 W9        29.92R
DETROIT        CLOUDY    77  70  79 W9        29.92R
FLINT          CLOUDY    80  69  69 W14       29.92R
GROSSE ILE     CLOUDY    75  71  87 NW6       29.90S
HOWELL         PTSUNNY   76  69  79 W9        29.94R

CITY           SKY/WX    TMP DP  RH WIND       PRES   REMARKS
JACKSON        CLOUDY    75  71  87 W7        29.95F
LAMBERTVILLE   CLOUDY    75  70  83 W9        29.95R
LANSING        CLOUDY    76  68  76 W12       29.94R
LAPEER         FAIR      76  69  78 W8        29.91R
MASON          PTSUNNY   75  68  78 W8        29.95R
MONROE         CLOUDY    74  71  88 SW8       29.93R
MT. CLEMENS    CLOUDY    78  71  79 W12       29.88R
PONTIAC        CLOUDY    76  69  79 W13       29.91R
PORT HOPE        N/A     75  69  81 W10       29.86R
PORT HURON     CLOUDY    77  73  88 W6        29.89R
TRI CITIES     PTSUNNY   75  72  90 W13       29.92R
MIDLAND        FAIR      77  72  83 W6        29.91R
TROY           CLOUDY    79  69  70 SW7       29.93R
SAGINAW HB     CLOUDY    77  70  78 W9        29.90R
$$
MIZ043>046-050>051-056>058-064>065-071>073-077>080-251400-
SOUTHWEST LOWER MICHIGAN

CITY           SKY/WX    TMP DP  RH WIND       PRES   REMARKS
BATTLE CREEK   CLOUDY    73  70  90 W9        29.97R
BENTON HARBOR  CLOUDY    77  69  76 VRB7      29.96F
BIG RAPIDS     SUNNY     74  71  92 NW5       29.94S
COLDWATER      MOSUNNY   73  70  90 W7        29.97F
FREMONT        FAIR      73  71  92 NW9       29.95R
HOLLAND        SUNNY     76  67  73 NW9       29.97R
GRAND RAPIDS   PTSUNNY   76  67  73 W12       29.95R
IONIA          FAIR      76  67  73 W9        29.94R
KALAMAZOO      CLOUDY    76  68  76 W7        29.96R
LUDINGTON      SUNNY     73  66  79 NW8       29.94S
MARSHALL       CLOUDY    74  71  88 SW5       29.95S
MOUNT PLEASANT SUNNY     75  69  80 W8        29.92R
MUSKEGON       MOSUNNY   76  67  73 NW7       29.95R
$$
MIZ016>042-251400-
NORTHERN LOWER MICHIGAN

CITY           SKY/WX    TMP DP  RH WIND       PRES   REMARKS
ALPENA         CLOUDY    77  64  64 W6        29.87R
BEAVER ISLAND  SUNNY     72  64  75 W8        29.88R
BELLAIRE       SUNNY     75  65  70 W5        29.90R
CADILLAC       SUNNY     74  67  78 W7        29.94S
CHARLEVOIX     SUNNY     73  66  80 W12       29.92R
FRANKFORT      SUNNY     73  65  76 W9        29.93R
GAYLORD        SUNNY     73  63  70 W10       29.91R
GRAYLING       SUNNY     76  66  72 W8        29.93R
HARBOR SPRINGS SUNNY     72  67  85 W6        29.88R
HOUGHTON LAKE  MOSUNNY   74  66  76 W12       29.94R
MANISTEE       SUNNY     74  66  76 NW16      29.93R
OSCODA         CLOUDY    73  68  82 W9        29.87R
PELLSTON       SUNNY     74  64  71 W8        29.87R
ROGERS CITY    SUNNY     74  65  71 W8        29.87R
TRAVERSE CITY  MOSUNNY   77  64  64 W14       29.90R
$$
MIZ007>008-015-251400-
EASTERN UPPER MICHIGAN

CITY           SKY/WX    TMP DP  RH WIND       PRES   REMARKS
KINROSS        SUNNY     68  64  87 W7        29.84R
MACKINAC ISLAN SUNNY     70  69  97 W7        29.85R
NEWBERRY       SUNNY     69  63  81 W10       29.85R
S. S. MARIE    MOSUNNY   71  63  75 W8        29.83R
MUNISING         N/A     72  61  68 W9G20     29.86R
$$
MIZ004>006-011>014-085-251400-
CENTRAL UPPER MICHIGAN

CITY           SKY/WX    TMP DP  RH WIND       PRES   REMARKS
MANISTIQUE     SUNNY     71  63  75 NW10      29.86S
ESCANABA       SUNNY     72  61  68 NW13      29.88S
MENOMINEE        N/A    N/A N/A N/A MISG        N/A
$$
MIZ001>003-009>011-084-251400-
WESTERN UPPER MICHIGAN

CITY           SKY/WX    TMP DP  RH WIND       PRES   REMARKS
IRON MOUNTAIN  SUNNY     70  59  68 W12G21    29.93R
HOUGHTON       MOSUNNY   68  59  73 W13       29.90R
COPPER HARBOR    N/A     68  59  73 NW14G26   29.86R
IRONWOOD       SUNNY     66  63  88 W7        29.97R
$$

ABBREVIATIONS USED IN REMARKS
   TC - TEMPERATURE IN CELSIUS
  WCI - WIND CHILL INDEX
   HX - HEAT INDEX
  VSB - VISIBILITY





USA.gov is the U.S. government's official web portal to all federal, state and local government web resources and services.